Regional Weather Roundup
Issued by NWS

Home | Current Version | Previous Version | Text Only | Print | Product List | Glossary Off
Versions: 1 2 3 4 5 6 7 8 9 10 11 12 13 14 15 16 17 18 19 20 21 22 23 24 25 26 27 28 29 30 31 32 33 34 35 36 37 38 39 40 41 42 43 44 45 46 47 48 49 50

000
ASUS43 KLMK 261010
RWRKY
KENTUCKY REGIONAL WEATHER ROUNDUP
NATIONAL WEATHER SERVICE LOUISVILLE KY
600 AM EDT SAT MAY 26 2018

NOTE "FAIR" INDICATES FEW OR NO CLOUDS BELOW 12,000 FEET
WITH NO SIGNIFICANT WEATHER AND/OR OBSTRUCTIONS TO VISIBILITY.

KYZ001>023-026-027-061>063-070>075-261100-
WESTERN AND SOUTH CENTRAL KENTUCKY

CITY           SKY/WX    TMP DP  RH WIND       PRES   REMARKS
PADUCAH        FAIR      70  68  93 S5        29.84R
HENDERSON      NOT AVBL
OWENSBORO      FAIR      71  69  93 S6        29.86R
HOPKINSVILLE   FAIR      69  69 100 S6        29.88R
BOWLING GREEN  FAIR      71  68  90 S5        29.89R
GLASGOW        FAIR      67  64  91 CALM      29.90R
$$

KYZ024-025-028>034-038-045-046-053-261100-
NORTH CENTRAL KENTUCKY

CITY           SKY/WX    TMP DP  RH WIND       PRES   REMARKS
LOUISVILLE/SDF MOCLDY    73  66  78 SE6       29.86S
LOUISVILLE/LOU FAIR      70  67  90 S6        29.87S
FORT KNOX      MOCLDY    69  69 100 S3        29.88S
$$

KYZ035>037-039>044-047>052-055>060-089>105-261100-
NORTHEAST KENTUCKY

CITY           SKY/WX    TMP DP  RH WIND       PRES   REMARKS
LEXINGTON      CLOUDY    69  65  86 SW6       29.90R
COVINGTON      MOCLDY    68  61  78 S5        29.86R
FRANKFORT      FAIR      67  62  84 SW3       29.87S
$$

KYZ054-064>069-076>088-106>120-261100-
SOUTHEAST KENTUCKY

CITY           SKY/WX    TMP DP  RH WIND       PRES   REMARKS
JACKSON        FAIR      68  65  90 S3        29.93R
LONDON         FAIR      68  65  90 S3        29.93S
SOMERSET       FAIR      64  64 100 MISG      29.93S
MIDDLESBORO    CLOUDY    68  68 100 CALM      29.95R
MONTICELLO     FAIR      66  65  96 W12       29.94R
$$





USA.gov is the U.S. government's official web portal to all federal, state and local government web resources and services.